Regional Weather Roundup
Issued by NWS

Home | Current Version | Previous Version | Graphics & Text | Print | Product List | Glossary On
Versions: 1 2 3 4 5 6 7 8 9 10 11 12 13 14 15 16 17 18 19 20 21 22 23 24 25 26 27 28 29 30 31 32 33 34 35 36 37 38 39 40 41 42 43 44 45 46 47 48 49 50
000
ASUS44 KMEG 280010
RWRTN
TENNESSEE HOURLY STATE WEATHER ROUNDUP
NATIONAL WEATHER SERVICE MEMPHIS TN
700 PM CDT WED JUL 27 2016

TNZ002-004-019-021-049-052-054-088>092-280100-
WEST TENNESSEE

CITY           SKY/WX    TMP DP  RH WIND       PRES   REMARKS
MEMPHIS INTL   LGT RAIN  77  73  87 S7        29.89F
NWS MEMPHIS      N/A     77 N/A N/A MISG        N/A
JACKSON        PTSUNNY   81  75  82 S5        29.89R
DYERSBURG      CLOUDY    77  73  88 CALM      29.90R
UNION CITY     CLOUDY    75  73  94 S5        29.89R VSB 3/4
PARIS          CLOUDY    73  72  94 N6        29.92R
LEXINGTON      PTSUNNY   86  73  66 S6        29.89R HX  93
$$

TNZ008-025-027-028-033-062-065-066-280100-
NORTH MIDDLE TENNESSEE

CITY           SKY/WX    TMP DP  RH WIND       PRES   REMARKS
NASHVILLE      MOCLDY    89  70  53 S8        29.92R HX  94
CLARKSVILLE    CLOUDY    84  78  82 CALM      29.91R HX  95
SMYRNA         PTCLDY    90  72  55 SW9G16    29.93R HX  97
COOKEVILLE     MOCLDY    90  77  66 CALM      29.95R HX 102
CROSSVILLE     CLEAR     81  74  79 CALM      30.00F
$$

TNZ061-075-076-078-094-096-097-280100-
SOUTH MIDDLE TENNESSEE

CITY           SKY/WX    TMP DP  RH WIND       PRES   REMARKS
FAYETTEVILLE   CLEAR     88  70  55 S13G20    29.94F HX  92
TULLAHOMA      CLEAR     88  66  48 S10       29.96S HX  90
WINCHESTER     CLEAR     90  68  48 S8        29.95F HX  93
MCMINNVILLE    PTCLDY    90  73  58 SW8       29.95R HX  98
COLUMBIA       CLEAR     90  73  58 S8        29.90R HX  98
SHELBYVILLE    CLEAR     90  73  58 S12       29.94R HX  98
$$

TNZ017-018-042-046-047-280100-
NORTHEAST TENNESSEE

CITY           SKY/WX    TMP DP  RH WIND       PRES   REMARKS
TRI CITIES     MOCLDY    76  71  85 VRB3      29.97F
ELIZABETHTON   PTCLDY    86  72  62 CALM      29.97F HX  92
$$

TNZ012-013-036-069-073-074-280100-
CENTRAL EAST TENNESSEE

CITY           SKY/WX    TMP DP  RH WIND       PRES   REMARKS
KNOXVILLE      MOCLDY    89  69  51 S13       29.94S HX  93
OAK RIDGE      MOCLDY    90  71  53 S7        29.95S HX  96
GATLINBURG     CLEAR     88  68  51 SW8       29.94S HX  91
MORRISTOWN     CLEAR     93  64  38 W9        29.94F HX  95
$$

TNZ083-085-099-280100-
SOUTHEAST TENNESSEE

CITY           SKY/WX    TMP DP  RH WIND       PRES   REMARKS
CHATTANOOGA    PTCLDY    91  66  43 S14G22    29.95F HX  93
$$

SKY/WX REPORTED AS FAIR MEANS FEW OR NO CLOUDS BELOW
12 THOUSAND FEET.




USA.gov is the U.S. government's official web portal to all federal, state and local government web resources and services.